Nantucket, MA

11:39 PM EDT on March 26, 2017 (GMT -0400)
Nantucket Memorial

Weather History for KACK - November, 2011

Change the Weather History Date:

Wednesday, November 30, 2011

  Actual Average Record
Temperature  
Mean Temperature 54 °F -  
Max Temperature 57 °F 45 °F 59 °F (1963)
Min Temperature 48 °F 32 °F 20 °F (1958)
Degree Days  
Heating Degree Days 12    
Growing Degree Days 4 (Base 50)    
Moisture  
Dew Point 49 °F    
Average Humidity 87    
Maximum Humidity 100    
Minimum Humidity 58    
Precipitation  
Precipitation 0.44 in - - ()
Sea Level Pressure  
Sea Level Pressure 29.73 in    
Wind  
Wind Speed 15 mph (SW)    
Max Wind Speed 24 mph    
Max Gust Speed 31 mph    
Visibility 7 miles    
Events Rain    
Averages and records for this station are not official NWS values.
T = Trace of Precipitation, MM = Missing Value Source: NWS Daily Summary

Daily Weather History Graph

Daily Weather History Graph

Search for Another Location

Airport or City:

Trip Planner

Search our weather history database for the weather conditions in past years. The results will help you decide how hot, cold, wet, or windy it might be!

Date:

Astronomy

Nov. 30, 2011 Rise Set
Actual Time 6:45 AM EST 4:12 PM EST
Civil Twilight 6:14 AM EST 4:42 PM EST
Nautical Twilight 5:40 AM EST 5:17 PM EST
Astronomical Twilight 5:07 AM EST 5:50 PM EST
Moon 10:59 AM EST (11/30) 10:08 PM EST (11/30)
Length of Visible Light 10h 28m
Length of Day
9h 27m
Waxing Crescent, 33% of the Moon is Illuminated
Nov 30
Waxing Crescent
Dec 2
First Quarter
Dec 10
Full
Dec 17
Last Quarter
Dec 24
New

Hourly Weather History & Observations

Time (EST) Temp. Dew Point Humidity Pressure Visibility Wind Dir Wind Speed Gust Speed Precip Events Conditions
12:09 AM 55.4 °F 55.4 °F 100% 29.75 in 6.0 mi SE 17.3 mph - N/A   Mostly Cloudy
12:53 AM 55.4 °F 55.4 °F 100% 29.74 in 6.0 mi SE 16.1 mph - N/A   Overcast
1:07 AM 55.4 °F 55.4 °F 100% 29.73 in 6.0 mi SE 17.3 mph - N/A   Overcast
1:43 AM 57.2 °F 55.4 °F 94% 29.72 in 7.0 mi SE 19.6 mph - N/A   Overcast
1:53 AM 57.0 °F 55.9 °F 96% 29.72 in 7.0 mi SE 17.3 mph - N/A   Overcast
2:35 AM 57.2 °F 55.4 °F 94% 29.70 in 6.0 mi SSE 17.3 mph - 0.00 in   Overcast
2:53 AM 57.9 °F 57.0 °F 97% 29.69 in 6.0 mi SSE 18.4 mph - 0.00 in   Overcast
3:46 AM 55.4 °F 55.4 °F 100% 29.71 in 4.0 mi West 24.2 mph 31.1 mph 0.00 in Rain Light Rain
3:51 AM 53.6 °F 53.6 °F 100% 29.69 in 2.0 mi West 13.8 mph 31.1 mph 0.06 in Rain Heavy Rain
3:53 AM 54.0 °F 53.1 °F 97% 29.68 in 2.0 mi West 10.4 mph 31.1 mph 0.07 in Rain Heavy Rain
3:57 AM 53.6 °F 53.6 °F 100% 29.69 in 3.0 mi West 10.4 mph - 0.00 in Rain Light Rain
4:02 AM 53.6 °F 53.6 °F 100% 29.71 in 7.0 mi WSW 12.7 mph 18.4 mph 0.01 in Rain Light Rain
4:12 AM 53.6 °F 53.6 °F 100% 29.70 in 3.0 mi West 13.8 mph - 0.05 in Rain Heavy Rain
4:29 AM 53.6 °F 53.6 °F 100% 29.69 in 4.0 mi West 13.8 mph - 0.09 in Rain Heavy Rain
4:39 AM 53.6 °F 53.6 °F 100% 29.70 in 2.0 mi West 10.4 mph - 0.16 in Rain Heavy Rain
4:53 AM 53.1 °F 53.1 °F 100% 29.69 in 4.0 mi West 9.2 mph - 0.21 in Rain Rain
5:32 AM 53.6 °F 53.6 °F 100% 29.71 in 2.5 mi West 12.7 mph - 0.12 in Rain Heavy Rain
5:41 AM 53.6 °F 53.6 °F 100% 29.71 in 4.0 mi WSW 11.5 mph - 0.13 in Rain Heavy Rain
5:53 AM 53.1 °F 53.1 °F 100% 29.73 in 5.0 mi WSW 15.0 mph - 0.16 in Rain Light Rain
6:19 AM 53.6 °F 53.6 °F 100% 29.71 in 4.0 mi WSW 9.2 mph - 0.00 in Rain Light Rain
6:53 AM 52.0 °F 50.0 °F 93% 29.73 in 5.0 mi WSW 12.7 mph - 0.00 in Rain Light Rain
7:08 AM 51.8 °F 51.8 °F 100% 29.72 in 7.0 mi SSW 9.2 mph - 0.00 in Rain Light Rain
7:53 AM 51.8 °F 51.8 °F 100% 29.72 in 6.0 mi South 10.4 mph - N/A   Overcast
8:53 AM 53.1 °F 52.0 °F 96% 29.72 in 5.0 mi SSW 11.5 mph - 0.00 in   Overcast
9:03 AM 53.6 °F 51.8 °F 94% 29.72 in 3.0 mi SW 13.8 mph - 0.00 in Rain Light Rain
9:32 AM 53.6 °F 51.8 °F 94% 29.72 in 7.0 mi SW 10.4 mph - 0.00 in   Overcast
10:45 AM 53.6 °F 48.2 °F 82% 29.71 in 9.0 mi SSW 12.7 mph - N/A   Overcast
10:53 AM 53.1 °F 48.0 °F 83% 29.70 in 9.0 mi SW 12.7 mph - N/A   Overcast
11:53 AM 55.0 °F 50.0 °F 83% 29.68 in 10.0 mi SW 17.3 mph - N/A   Mostly Cloudy
12:53 PM 55.9 °F 46.0 °F 69% 29.68 in 9.0 mi WSW 19.6 mph 27.6 mph N/A   Mostly Cloudy
1:53 PM 55.0 °F 45.0 °F 69% 29.68 in 10.0 mi SW 19.6 mph 26.5 mph N/A   Partly Cloudy
2:53 PM 52.0 °F 44.1 °F 74% 29.70 in 10.0 mi WSW 17.3 mph 25.3 mph N/A   Scattered Clouds
3:53 PM 50.0 °F 41.0 °F 71% 29.72 in 10.0 mi WSW 17.3 mph 26.5 mph N/A   Scattered Clouds
4:15 PM 50.0 °F 42.8 °F 76% 29.72 in 10.0 mi WSW 18.4 mph 24.2 mph N/A   Mostly Cloudy
4:53 PM 50.0 °F 41.0 °F 71% 29.74 in 10.0 mi WSW 16.1 mph - N/A   Scattered Clouds
5:53 PM 50.0 °F 39.0 °F 66% 29.76 in 10.0 mi WSW 18.4 mph 26.5 mph N/A   Clear
6:53 PM 50.0 °F 39.9 °F 68% 29.78 in 10.0 mi WSW 17.3 mph - N/A   Overcast
7:53 PM 51.1 °F 37.9 °F 61% 29.79 in 10.0 mi WSW 16.1 mph - N/A   Overcast
8:53 PM 51.1 °F 37.0 °F 59% 29.80 in 10.0 mi WSW 15.0 mph - N/A   Overcast
9:53 PM 50.0 °F 37.9 °F 63% 29.82 in 10.0 mi West 10.4 mph 19.6 mph N/A   Overcast
10:53 PM 50.0 °F 36.0 °F 59% 29.83 in 10.0 mi West 13.8 mph 21.9 mph N/A   Overcast
11:53 PM 48.2 °F 33.8 °F 58% 29.85 in 10.0 mi West 10.4 mph - N/A   Overcast